Location: Keeler
(32.5379°N, 97.3678°W)
Time: 00:31:40
(UTC+00:00)

Daily predictions for brighter satellites

Satellite Brightness Start Highest point End
(mag) Time Altitude Azimuth Time Altitude Azimuth Time Altitude Azimuth
Delta 168 4.3 02:01:21 10° WSW 02:06:07 42° S 02:13:04 10° ESE
Centaur AC-119 4.2 02:02:40 10° SSW 02:06:22 31° SE 02:15:38 10° E
USA 234 3.4 02:02:38 10° NE 02:08:58 52° SE 02:15:17 10° SSW
DELTA 2 R/B (1) 4.0 02:05:02 10° WNW 02:10:30 56° SSW 02:15:57 10° SE
Meteor 1-18 Rocket 4.4 02:07:54 10° S 02:13:49 87° W 02:19:38 10° N
Resurs 01 Rocket 1.9 02:10:10 10° SSE 02:14:25 50° ENE 02:18:40 10° N
SJ-6B 3.8 02:15:29 10° S 02:18:54 42° W 02:22:21 10° NNW
Cosmos 2026 Rocket 4.0 02:13:31 10° S 02:19:42 79° E 02:25:49 10° N
Lacrosse 5 rocket 2.8 02:22:26 10° WNW 02:26:09 32° WSW 02:29:45 10° S
Cosmos 1470 4.4 02:25:23 10° NE 02:27:50 17° ENE 02:29:33 13° ESE
CZ-4 R/B 2.4 02:25:07 10° S 02:28:52 44° W 02:32:42 10° NNW
CZ-4B R/B 3.2 02:24:47 10° SSE 02:30:03 87° WSW 02:35:23 10° NNW
Cosmos 1328 Rocket 4.2 02:28:03 10° SSW 02:32:14 55° W 02:36:27 10° N
KORONAS-FOTON 4.1 02:28:45 10° SSE 02:32:15 43° E 02:35:48 10° NNE
Cosmos 1842 3.1 02:34:21 10° S 02:37:55 57° E 02:41:31 10° NNE
IRIDIUM 106 4.5 02:37:10 10° N 02:42:17 55° E 02:46:58 12° SSE
H-2A R/B 2.3 02:44:35 10° SW 02:45:22 12° SSW 02:45:26 12° SSW
Cosmos 540 Rocket 4.2 02:46:43 10° N 02:51:27 36° ENE 02:54:15 21° ESE
Meteosat 1 Rocket2 4.3 02:47:50 10° W 02:53:01 50° S 02:58:25 19° ESE
USA 186 4.1 02:53:48 10° SSW 02:56:31 24° W 02:59:16 10° NW
Cosmos 2082 Rocket 4.0 02:52:00 10° SW 02:57:08 34° WNW 03:02:17 10° N
SL-16 R/B 3.7 02:56:19 10° N 03:00:38 22° ENE 03:03:14 16° E
Okean-O 2.6 02:58:43 22° SSE 03:01:30 68° ENE 03:05:53 10° N
Cosmos 1954 Rocket 4.5 02:56:28 10° SSW 03:01:42 65° WNW 03:06:57 10° N
MOS 1-B Rocket 4.3 02:55:35 10° S 03:02:02 66° WSW 03:07:47 10° NNW
Cosmos 1707 2.5 02:59:32 12° S 03:02:53 82° W 03:06:30 10° N
Cosmos 1515 Rocket 4.2 02:59:57 10° SSW 03:04:11 55° W 03:08:26 10° N
SeaSat 1 3.9 03:02:21 17° E 03:04:37 23° ENE 03:08:28 10° N
Cosmos 2369 3.7 02:59:02 10° NNW 03:04:48 85° ENE 03:08:35 22° SSE
PSLV R/B 4.4 03:02:43 14° S 03:05:35 46° W 03:08:59 10° NNW
Atlas Centaur 2 3.0 02:59:21 10° W 03:07:24 78° S 03:14:19 16° E
USA 245 4.4 03:10:21 22° ENE 03:10:40 23° ENE 03:13:42 10° NNE
Cosmos 676 Rocket 4.5 03:07:30 10° SSW 03:12:46 64° WNW 03:18:02 10° N
CZ-4C R/B 3.7 03:09:53 10° N 03:14:00 67° WNW 03:18:02 10° SSW
SPOT 5 2.6 03:14:17 33° SE 03:16:05 65° ENE 03:20:22 10° N
IRS-1A Rocket 4.4 03:14:38 28° SE 03:17:20 54° ENE 03:22:41 10° N
Cosmos 2228 Rocket 4.1 03:18:36 29° E 03:18:54 29° E 03:22:50 10° NNE
MetOp-B 4.1 03:16:28 28° SSE 03:19:21 72° ENE 03:24:42 10° N
Okean O Rocket 3.1 03:17:46 10° SSW 03:21:42 32° W 03:25:38 10° NW
Tiangong -1.0 03:19:04 10° NW 03:22:01 36° NNE 03:22:45 31° NE
Cosmos 1356 Rocket 4.3 03:25:55 32° E 03:25:55 32° E 03:29:25 10° NNE
ASTRO E2 3.1 03:22:57 10° WSW 03:25:30 38° SSW 03:25:30 38° SSW
Cosmos 1553 Rocket 4.1 03:22:32 10° N 03:28:45 79° W 03:33:03 22° S
Cosmos 1869 Rocket 3.7 03:25:02 10° N 03:29:24 54° E 03:30:17 46° SE
Cosmos 1400 Rocket 2.6 03:28:43 49° S 03:29:40 77° E 03:33:32 10° N
S3M 4.2 03:26:04 10° N 03:32:17 55° E 03:34:41 36° SE
ERS-1 Rocket 3.1 03:30:43 40° SE 03:32:20 60° ENE 03:37:17 10° N
Cosmos 2266 Rocket 3.9 03:30:54 21° S 03:35:21 86° E 03:41:46 10° N
Cosmos 1655 Rocket 4.1 03:34:27 33° SSE 03:37:16 59° E 03:43:32 10° NNE
ATLAS CENTAUR R/B 1.2 03:36:30 28° SW 03:38:07 64° WNW 03:41:36 10° NNE
Meteor 1-22 Rocket 4.4 03:34:21 10° N 03:40:01 60° E 03:41:50 42° SE
Cosmos 841 Rocket 4.0 03:35:56 10° N 03:40:58 45° ENE 03:41:59 40° E
Cosmos 1980 Rocket 3.6 03:37:05 10° NW 03:42:00 31° WSW 03:45:43 15° SSW
Cosmos 1763 Rocket 4.3 03:37:41 10° NNW 03:42:37 45° WSW 03:45:09 26° SSW
Spot 2 Rocket 3.7 03:42:27 46° ESE 03:43:32 56° ENE 03:48:28 10° N
Cosmos 2322 Rocket 3.2 03:38:43 10° N 03:43:43 31° ENE 03:44:58 28° E
Cosmos 1300 4.2 03:41:18 10° NNE 03:43:15 22° NE 03:43:15 22° NE
Cosmos 1441 Rocket 3.2 03:41:35 10° NNW 03:45:10 64° W 03:45:27 61° SW
Resurs 01 Rocket 4.5 03:50:05 10° WSW 03:51:03 11° W 03:52:01 10° W
Cosmos 1908 3.9 03:49:41 10° NNW 03:53:06 42° W 03:53:29 40° WSW
Cosmos 1862 Rocket 3.9 03:55:14 51° ENE 03:55:14 51° ENE 03:59:03 10° NNE
Meteor 1-21 4.2 03:54:03 50° SSE 03:55:21 65° E 04:01:05 10° NNE
Terra 1.7 03:54:54 64° SSE 03:55:37 89° ENE 04:00:21 10° NNW
Cosmos 2278 3.6 03:49:55 10° NNW 03:55:39 89° E 03:57:04 53° SSE
Meteor 2-10 Rocket 3.6 03:50:20 10° N 03:55:45 60° E 03:56:28 55° ESE
Cosmos 883 Rocket 4.5 03:55:20 10° N 04:01:41 72° E 04:03:16 51° SSE
Landsat 5 3.8 04:02:41 10° NNE 04:05:57 54° NE 04:05:57 54° NE
Okean 3 4.2 04:08:31 42° NE 04:08:31 42° NE 04:11:30 10° NNE
Ariane Rocket 2.9 04:07:33 69° S 04:08:12 87° WSW 04:13:19 10° NNW
Cosmos 2219 Rocket 3.9 04:05:08 10° NNE 04:09:09 20° ENE 04:09:56 19° ENE
Cosmos 2237 4.2 04:05:29 10° NNW 04:11:12 76° WSW 04:12:12 60° S
SL-14 R/B 4.0 04:12:43 48° WNW 04:12:43 48° WNW 04:16:08 10° N
Cosmos 1707 Rocket 3.8 04:15:11 65° W 04:15:18 66° W 04:19:43 10° N
SJ 16-02 1.7 04:16:45 58° NNE 04:16:45 58° NNE 04:20:14 10° NNE
Cosmos 1346 Rocket 4.0 04:23:45 10° N 04:26:15 39° N 04:26:15 39° N
Cosmos 2315 Rocket 4.1 04:21:54 10° N 04:28:16 75° W 04:29:33 58° SSW
RESURS DK-1 3.4 04:28:20 10° NNW 04:31:10 44° NNW 04:31:10 44° NNW
SPOT 3 Rocket 3.9 04:32:13 53° WSW 04:32:30 54° W 04:37:33 10° NNW
Cosmos 2360 Rocket 2.2 04:28:26 10° NNW 04:34:00 66° ENE 04:34:00 66° ENE
ATLAS 2AS CENTAUR R/B 3.0 04:30:01 10° NNW 04:36:32 50° NE 04:37:28 47° E
MOS 1 Rocket 4.4 04:38:37 40° WSW 04:39:16 41° W 04:44:20 10° NNW
SeaSat 1 3.4 04:42:03 37° WSW 04:42:03 37° WSW 04:46:20 10° NW
Cosmos 1733 Rocket 4.0 04:39:24 10° NNW 04:42:49 46° NW 04:42:49 46° NW
SL-16 R/B 2.9 04:39:32 10° NW 04:44:51 43° WSW 04:45:05 42° WSW
Okean 1-7 4.2 04:47:57 40° N 04:47:57 40° N 04:50:49 10° N
USA 281 4.0 04:45:41 35° ENE 04:46:35 37° ENE 04:52:30 10° N
Cosmos 2333 Rocket 2.2 04:41:39 10° NNW 04:47:07 76° NNE 04:47:07 76° NNE
CZ-2C R/B 4.4 04:50:23 33° ENE 04:50:23 33° ENE 04:59:29 10° N
Meteor 2-20 4.4 04:44:41 10° NNW 04:50:49 71° W 04:51:09 69° WSW
Cosmos 1814 Rocket 4.4 04:51:07 10° NNW 04:55:33 61° N 04:55:33 61° N
Atlas Centaur 2 3.0 04:48:39 10° W 04:56:31 59° SSW 04:56:31 59° SSW
Cosmos 1745 Rocket 4.2 05:08:42 64° NE 05:08:42 64° NE 05:14:20 10° NNE
Cosmos 839 Rocket 4.1 05:06:00 10° NNW 05:12:09 67° NE 05:12:09 67° NE
Nadezhda 1 Rocket 4.2 05:19:02 10° N 05:24:27 64° NNE 05:24:27 64° NNE
Cosmos 2297 Rocket 3.6 05:29:40 30° NE 05:29:40 30° NE 05:32:39 10° NNE
Cosmos 2322 Rocket 3.7 05:22:47 10° NW 05:26:46 28° W 05:26:46 28° W
CENTAUR R/B 4.5 05:33:37 14° ENE 05:33:37 14° ENE 05:34:49 10° ENE
CZ-3 Stage 3 3.6 05:00:14 10° W 05:34:10 75° SSW 05:35:53 64° SE
COSMOS 2428 3.5 05:46:58 10° NNW 05:51:11 49° N 05:51:11 49° N
Cosmos 2219 Rocket 3.3 05:47:52 10° NNW 05:51:37 37° WNW 05:51:37 37° WNW
COSMOS 2455 3.8 06:07:47 42° NW 06:07:47 42° NW 06:13:17 10° N
SL-12 R/B(2) 4.4 06:09:01 55° E 06:09:01 55° E 06:16:43 10° NE
NOSS 0 Rocket 4.4 06:04:54 10° NNW 06:10:02 55° NNE 06:10:02 55° NNE
CZ-4C R/B 3.6 06:13:09 27° NNW 06:13:09 27° NNW 06:16:18 10° NNE
ATLAS 2AS CENTAUR R/B 4.3 06:21:50 10° WNW 06:24:53 20° W 06:24:53 20° W
USA 281 4.4 06:32:33 31° WNW 06:32:33 31° WNW 06:36:51 10° NW
Cosmos 2098 Rocket 4.4 06:27:13 10° N 06:32:30 59° NNW 06:32:30 59° NNW
SL-16 R/B 4.2 06:41:27 10° NNE 06:45:34 20° ENE 06:46:35 19° ENE
Cosmos 2227 Rocket 3.1 06:52:28 45° NNW 06:52:28 45° NNW 06:56:35 10° NNE
Cosmos 2237 Rocket 3.1 06:47:21 10° NNW 06:51:07 44° NNW 06:51:07 44° NNW
H-2A R/B 4.4 06:49:43 10° N 06:51:12 20° NNW 06:51:12 20° NNW
Cosmos 2297 Rocket 4.1 07:11:26 19° WNW 07:11:29 19° WNW 07:15:29 10° NNW
Cosmos 2219 3.9 07:15:09 49° N 07:15:09 49° N 07:19:17 10° NNE
CENTAUR R/B 3.2 07:20:44 40° NW 07:20:44 40° NW 07:26:26 10° NNE
Cosmos 2341 Rocket 4.4 07:27:49 56° ENE 07:27:49 56° ENE 07:33:22 10° NNE
ADEOS II 4.3 07:31:28 10° ENE 07:34:15 14° E 07:34:19 14° E
Cosmos 1937 Rocket 4.3 07:38:33 49° NNE 07:38:33 49° NNE 07:42:23 10° NNE
Cosmos 1898 Rocket 4.3 07:42:11 46° N 07:42:11 46° N 07:45:54 10° NNE
Cosmos 2263 Rocket 2.8 07:45:28 49° NNW 07:45:28 49° NNW 07:49:57 10° N
Resurs 1-4 Rocket 3.3 07:43:05 10° NNE 07:47:22 33° E 07:47:22 33° E
Cosmos 2218 Rocket 3.9 08:03:34 88° NNW 08:03:34 88° NNW 08:09:45 10° N
Cosmos 1844 Rocket 3.7 08:04:20 35° ESE 08:04:20 35° ESE 08:09:19 10° NE
Cosmos 2366 rocket 3.9 08:10:21 75° W 08:10:21 75° W 08:16:36 10° N
NOSS 3-2 (C) 3.5 08:12:44 54° NW 08:12:44 54° NW 08:17:53 10° NNE
ALOS 4.4 08:09:49 10° NE 08:12:50 17° E 08:13:24 17° ESE
Cosmos 1544 Rocket 4.5 08:14:52 10° N 08:18:04 47° N 08:18:04 47° N
Cosmos 1680 Rocket 4.0 08:14:28 10° N 08:19:35 54° ENE 08:20:14 50° E
Cosmos 2228 3.9 08:18:37 10° N 08:21:59 48° NNE 08:21:59 48° NNE
USA 267 3.3 08:16:45 10° NE 08:23:12 62° SE 08:24:01 57° SSE
MSX 3.6 08:19:35 10° NNE 08:25:20 86° WNW 08:25:33 83° SW
SL-16 R/B 3.0 08:24:26 10° NNW 08:28:23 38° WNW 08:28:23 38° WNW
SL-16 R/B 4.0 08:29:10 10° SE 08:34:39 33° ENE 08:40:08 10° N
CZ-2C R/B 2.6 08:37:15 62° SE 08:38:04 76° ENE 08:43:24 10° N
IDEFIX/ARIANE 42P 2.9 08:33:18 10° N 08:38:13 52° WNW 08:38:13 52° WNW
SEDSat Delta rocket 4.4 08:41:06 26° E 08:41:06 26° E 08:42:59 10° E
Mugunghwa Rocket 4.3 08:42:20 46° SSE 08:42:20 46° SSE 08:48:02 10° E
CZ-2C R/B 2.8 08:39:15 10° N 08:44:35 83° WNW 08:44:52 78° SW
Cosmos 1943 3.5 08:39:06 10° NNW 08:44:40 62° ENE 08:47:43 27° SE
CZ-2D R/B 2.1 08:43:22 10° N 08:48:36 62° WNW 08:48:55 60° W
FENGYUN 3A 3.5 08:46:34 10° NNE 08:51:58 88° ESE 08:52:54 63° S
ASTEX 1 4.0 08:52:22 34° SE 08:54:10 52° E 08:58:53 10° N
Cosmos 1536 Rocket 4.5 08:55:28 37° NW 08:55:28 37° NW 08:58:54 10° N
Cosmos 1606 Rocket 4.5 08:50:34 10° N 08:54:50 45° E 08:56:15 33° SE
Cosmos 1125 Rocket 4.1 08:57:57 38° SSE 08:59:30 51° ESE 09:04:37 10° NNE
Cosmos 1867 4.0 09:01:14 43° W 09:02:07 48° WNW 09:07:24 10° NNE
Cosmos 2239 Rocket 4.4 09:00:57 50° SSW 09:02:38 76° W 09:08:47 10° N
SL-08 R/B 4.5 09:05:17 46° SSW 09:07:12 69° W 09:13:29 10° N
Cosmos 1727 Rocket 4.0 09:01:45 10° N 09:08:02 70° W 09:10:22 41° SSW
Cosmos 1726 Rocket 4.3 09:06:01 10° N 09:10:19 50° E 09:12:35 25° SE
Cosmos 494 Rocket 4.4 09:07:05 10° N 09:12:16 62° ENE 09:17:16 11° SSE
Cosmos 1812 4.5 09:10:16 10° NNE 09:13:20 27° E 09:15:37 15° SE
Cosmos 2058 3.8 09:12:19 31° SE 09:13:39 43° E 09:17:30 10° NNE
ADEOS II 2.3 09:09:00 10° N 09:14:06 53° WNW 09:15:11 45° WSW
Cosmos 1844 3.9 09:15:24 43° WSW 09:16:59 57° WNW 09:22:41 10° NNE
IRAS Rocket 4.3 09:12:55 10° NNE 09:18:25 75° ESE 09:20:58 33° S
USA 238 DEB 4.3 09:16:15 29° W 09:18:29 39° NW 09:24:32 10° NNE
USA 238 4.3 09:16:17 29° W 09:18:31 39° NW 09:24:36 10° NNE
GOES 2 Rocket 4.5 09:21:11 23° SSE 09:21:11 23° SSE 09:23:22 10° SE
Cosmos 1000 Rocket 4.4 09:15:52 10° N 09:22:08 78° W 09:25:45 27° S
SAR-Lupe-4 3.4 09:18:45 10° NNE 09:22:19 85° ESE 09:22:35 74° S
ATLAS 5 CENTAUR R/B 2.3 09:25:49 26° SE 09:26:22 27° ESE 09:29:13 10° NE
Timation 2 Rocket 4.1 09:23:53 32° SSW 09:27:14 89° ESE 09:33:45 10° NNE
Resurs 1-4 Rocket 3.4 09:23:16 10° NNW 09:27:24 24° WNW 09:28:26 22° W
Iridium 4 Rocket 4.1 09:25:19 10° NNE 09:29:45 48° E 09:34:34 10° SSE
UNK 4.2 09:25:29 11° SSE 09:29:53 59° ENE 09:34:24 10° N
Dummy Sat-01 4.5 09:27:10 10° N 09:30:51 70° W 09:31:21 60° SW
Meteor 1-28 Rocket 3.1 09:35:44 51° W 09:35:44 51° W 09:39:10 10° NNW
Delta 142 4.3 09:40:12 32° WSW 09:42:10 49° S 09:48:15 10° ESE
Cosmos 1544 2.3 09:42:30 64° ESE 09:42:40 67° E 09:45:16 10° NNE
NOSS 2-3 (D) 4.3 09:42:01 22° SSE 09:43:46 36° ESE 09:47:10 10° NE
Cosmos 1892 Rocket 4.0 09:42:42 35° WSW 09:43:48 42° W 09:48:00 10° N
Cosmos 1535 Rocket 4.4 09:39:57 21° S 09:44:18 82° W 09:50:29 10° N
Delta 2 Rocket 3.5 09:43:07 17° WNW 09:46:09 71° NNE 09:50:31 10° E
NOAA 11 4.3 09:41:55 10° NNE 09:47:24 77° ESE 09:51:43 17° S
Cosmos 1844 Rocket 4.0 09:45:59 20° W 09:48:08 25° WNW 09:52:42 10° N
Cosmos 2058 Rocket 3.3 09:44:11 10° N 09:48:36 72° E 09:52:57 10° SSE
ALOS 3.0 09:45:52 10° N 09:50:04 35° WNW 09:51:42 27° WSW
Cosmos 2298 Rocket 4.0 09:49:12 23° SSW 09:52:38 89° W 09:57:59 10° NNE
METEOR-M 4.1 09:49:16 10° N 09:54:37 82° WNW 09:58:36 18° SSW
BREEZE-M DEB (TANK) 3.5 09:54:25 29° WSW 09:56:03 67° NW 10:04:55 10° NE
Cosmos 1607 4.0 09:54:58 10° NNW 10:01:21 82° ENE 10:07:34 10° SSE
NOSS 2-2 (C) 3.0 10:00:13 30° SW 10:01:42 61° WNW 10:04:48 10° NNE
Cosmos 1605 Rocket 4.0 09:57:05 16° SSW 10:02:11 70° W 10:08:19 10° N
USA 267 4.3 10:00:10 10° NNE 10:05:54 34° NW 10:11:21 11° W
Cosmos 2278 Rocket 3.7 10:05:26 10° SSE 10:10:25 33° ESE 10:15:25 10° NE
NOSS 2-2 (D) 2.8 10:08:14 22° SSW 10:10:27 88° WNW 10:13:39 10° NNE
Cosmos 1626 Rocket 3.5 10:06:56 15° SSW 10:10:35 74° W 10:14:59 10° N
NOSS 2-3 (E) 3.0 10:08:40 22° SSW 10:10:55 83° WNW 10:14:37 10° NNE
CZ-4 R/B 4.1 10:06:28 10° N 10:11:18 58° WNW 10:15:17 15° SSW
BREEZE-M DEB (TANK) 4.0 10:15:45 11° S 10:15:45 11° S 10:16:02 10° S
H-2A R/B 3.5 10:10:13 10° NNE 10:15:04 37° E 10:19:47 10° SSE
NOSS 2-3 (C) 3.1 10:13:54 20° SW 10:16:17 70° WNW 10:19:57 10° NNE
SL-16 R/B 3.3 10:13:12 13° SSW 10:18:05 32° W 10:23:35 10° NW
Cosmos 1862 4.0 10:14:33 10° S 10:18:14 49° E 10:21:55 10° NNE
Cosmos 1271 Rocket 2.9 10:18:07 10° S 10:21:40 63° E 10:25:12 10° NNE
IRS-1D 3.5 10:16:32 10° NNE 10:21:41 84° WNW 10:26:42 10° SSW
SEDSat Delta rocket 2.7 10:20:59 12° W 10:24:42 76° S 10:28:48 10° E
Cosmos 1484 Rocket 4.3 10:27:13 10° NNE 10:30:43 34° E 10:34:11 10° SSE
Envisat 4.0 10:30:02 10° NNW 10:34:23 30° WNW 10:38:38 10° SW
Mugunghwa Rocket 4.3 10:30:58 10° WSW 10:37:15 50° S 10:43:18 10° ESE
Okean 1-7 Rocket 3.7 10:34:57 10° SSW 10:39:24 59° W 10:43:49 10° N
CZ-2C R/B 3.1 10:40:19 10° N 10:44:24 33° WNW 10:48:30 10° SW
SWARM A 4.5 10:42:46 10° SSW 10:46:14 57° W 10:49:44 10° N
NOSS 3-1 (C) 4.3 10:42:48 10° S 10:46:55 33° ESE 10:51:27 10° NE
Lacrosse 5 2.7 10:42:55 10° SSW 10:47:45 48° ESE 10:52:36 10° NE
Cosmos 1238 Rocket 3.9 10:45:54 10° NW 10:47:56 16° W 10:49:52 10° SW
Cosmos-2242 3.2 10:44:32 10° NNW 10:48:43 53° W 10:52:52 10° S
Cosmos 1782 3.1 10:50:05 10° NNW 10:53:44 43° W 10:57:22 10° SSW
